Year,Month,Day,Hour,Minute,Value (Times are PST for temperature in C)
2013,08,18,00,00,8.20
2013,08,18,00,04,7.90
2013,08,18,00,05,7.90
2013,08,18,00,06,7.90
2013,08,18,00,07,7.90
2013,08,18,00,08,7.90
2013,08,18,00,09,7.90
2013,08,18,00,10,7.90
2013,08,18,00,11,7.90
2013,08,18,00,12,7.90
2013,08,18,00,13,7.90
2013,08,18,00,14,7.90
2013,08,18,00,15,7.90
2013,08,18,00,19,7.90
2013,08,18,00,20,7.90
2013,08,18,00,21,7.90
2013,08,18,00,22,7.90
2013,08,18,00,23,7.90
2013,08,18,00,24,7.90
2013,08,18,00,25,7.90
2013,08,18,00,26,7.90
2013,08,18,00,27,7.90
2013,08,18,00,28,7.90
2013,08,18,00,29,7.90
2013,08,18,00,30,7.90
2013,08,18,00,34,7.80
2013,08,18,00,35,7.80
2013,08,18,00,36,7.80
2013,08,18,00,37,7.80
2013,08,18,00,38,7.80
2013,08,18,00,39,7.80
2013,08,18,00,40,7.80
2013,08,18,00,41,7.80
2013,08,18,00,42,7.80
2013,08,18,00,43,7.80
2013,08,18,00,44,7.80
2013,08,18,00,45,7.80
2013,08,18,00,49,7.60
2013,08,18,00,50,7.60
2013,08,18,00,51,7.60
2013,08,18,00,52,7.60
2013,08,18,00,53,7.60
2013,08,18,00,54,7.60
2013,08,18,00,55,7.60
2013,08,18,00,56,7.60
2013,08,18,00,57,7.60
2013,08,18,00,58,7.60
2013,08,18,00,59,7.60
2013,08,18,01,00,7.60
2013,08,18,01,04,7.80
2013,08,18,01,05,7.80
2013,08,18,01,06,7.80
2013,08,18,01,07,7.80
2013,08,18,01,08,7.80
2013,08,18,01,09,7.80
2013,08,18,01,10,7.80
2013,08,18,01,11,7.80
2013,08,18,01,12,7.80
2013,08,18,01,13,7.80
2013,08,18,01,14,7.80
2013,08,18,01,15,7.80
2013,08,18,01,19,7.80
2013,08,18,01,20,7.80
2013,08,18,01,21,7.80
2013,08,18,01,22,7.80
2013,08,18,01,23,7.80
2013,08,18,01,24,7.80
2013,08,18,01,25,7.80
2013,08,18,01,26,7.80
2013,08,18,01,27,7.80
2013,08,18,01,28,7.80
2013,08,18,01,29,7.80
2013,08,18,01,30,7.80
2013,08,18,01,34,8.10
2013,08,18,01,35,8.10
2013,08,18,01,36,8.10
2013,08,18,01,37,8.10
2013,08,18,01,38,8.10
2013,08,18,01,39,8.10
2013,08,18,01,40,8.10
2013,08,18,01,41,8.10
2013,08,18,01,42,8.10
2013,08,18,01,43,8.10
2013,08,18,01,44,8.10
2013,08,18,01,45,8.10
2013,08,18,01,49,8.50
2013,08,18,01,50,8.50
2013,08,18,01,51,8.50
2013,08,18,01,52,8.50
2013,08,18,01,53,8.50
2013,08,18,01,54,8.50
2013,08,18,01,55,8.50
2013,08,18,01,56,8.50
2013,08,18,01,57,8.50
2013,08,18,01,58,8.50
2013,08,18,01,59,8.50
2013,08,18,02,00,8.50
2013,08,18,02,04,8.60
2013,08,18,02,05,8.60
2013,08,18,02,06,8.60
2013,08,18,02,07,8.60
2013,08,18,02,08,8.60
2013,08,18,02,09,8.60
2013,08,18,02,10,8.60
2013,08,18,02,11,8.60
2013,08,18,02,12,8.60
2013,08,18,02,13,8.60
2013,08,18,02,14,8.60
2013,08,18,02,15,8.60
2013,08,18,02,19,8.70
2013,08,18,02,20,8.70
2013,08,18,02,21,8.70
2013,08,18,02,22,8.70
2013,08,18,02,23,8.70
2013,08,18,02,24,8.70
2013,08,18,02,25,8.70
2013,08,18,02,26,8.70
2013,08,18,02,27,8.70
2013,08,18,02,28,8.70
2013,08,18,02,29,8.70
2013,08,18,02,30,8.70
2013,08,18,02,34,9.10
2013,08,18,02,35,9.10
2013,08,18,02,36,9.10
2013,08,18,02,37,9.10
2013,08,18,02,38,9.10
2013,08,18,02,39,9.10
2013,08,18,02,40,9.10
2013,08,18,02,41,9.10
2013,08,18,02,42,9.10
2013,08,18,02,43,9.10
2013,08,18,02,44,9.10
2013,08,18,02,45,9.10
2013,08,18,02,49,9.30
2013,08,18,02,50,9.30
2013,08,18,02,51,9.30
2013,08,18,02,52,9.30
2013,08,18,02,53,9.30
2013,08,18,02,54,9.30
2013,08,18,02,55,9.30
2013,08,18,02,56,9.30
2013,08,18,02,57,9.30
2013,08,18,02,58,9.30
2013,08,18,02,59,9.30
2013,08,18,03,00,9.30
2013,08,18,03,04,9.20
2013,08,18,03,05,9.20
2013,08,18,03,06,9.20
2013,08,18,03,07,9.20
2013,08,18,03,08,9.20
2013,08,18,03,09,9.20
2013,08,18,03,10,9.20
2013,08,18,03,11,9.20
2013,08,18,03,12,9.20
2013,08,18,03,13,9.20
2013,08,18,03,14,9.20
2013,08,18,03,15,9.20
2013,08,18,03,19,9.10
2013,08,18,03,20,9.10
2013,08,18,03,21,9.10
2013,08,18,03,22,9.10
2013,08,18,03,23,9.10
2013,08,18,03,24,9.10
2013,08,18,03,25,9.10
2013,08,18,03,26,9.10
2013,08,18,03,27,9.10
2013,08,18,03,28,9.10
2013,08,18,03,29,9.10
2013,08,18,03,30,9.10
2013,08,18,03,34,9.40
2013,08,18,03,35,9.40
2013,08,18,03,36,9.40
2013,08,18,03,37,9.40
2013,08,18,03,38,9.40
2013,08,18,03,39,9.40
2013,08,18,03,40,9.40
2013,08,18,03,41,9.40
2013,08,18,03,42,9.40
2013,08,18,03,43,9.40
2013,08,18,03,44,9.40
2013,08,18,03,45,9.40
2013,08,18,03,49,9.30
2013,08,18,03,50,9.30
2013,08,18,03,51,9.30
2013,08,18,03,52,9.30
2013,08,18,03,53,9.30
2013,08,18,03,54,9.30
2013,08,18,03,55,9.30
2013,08,18,03,56,9.30
2013,08,18,03,57,9.30
2013,08,18,03,58,9.30
2013,08,18,03,59,9.30
2013,08,18,04,00,9.30
2013,08,18,04,04,9.30
2013,08,18,04,05,9.30
2013,08,18,04,06,9.30
2013,08,18,04,07,9.30
2013,08,18,04,08,9.30
2013,08,18,04,09,9.30
2013,08,18,04,10,9.30
2013,08,18,04,11,9.30
2013,08,18,04,12,9.30
2013,08,18,04,13,9.30
2013,08,18,04,14,9.30
2013,08,18,04,15,9.30
2013,08,18,04,19,8.90
2013,08,18,04,20,8.90
2013,08,18,04,21,8.90
2013,08,18,04,22,8.90
2013,08,18,04,23,8.90
2013,08,18,04,24,8.90
2013,08,18,04,25,8.90
2013,08,18,04,26,8.90
2013,08,18,04,27,8.90
2013,08,18,04,28,8.90
2013,08,18,04,29,8.90
2013,08,18,04,30,8.90
2013,08,18,04,34,8.60
2013,08,18,04,35,8.60
2013,08,18,04,36,8.60
2013,08,18,04,37,8.60
2013,08,18,04,38,8.60
2013,08,18,04,39,8.60
2013,08,18,04,40,8.60
2013,08,18,04,41,8.60
2013,08,18,04,42,8.60
2013,08,18,04,43,8.60
2013,08,18,04,44,8.60
2013,08,18,04,45,8.60
2013,08,18,04,49,8.40
2013,08,18,04,50,8.40
2013,08,18,04,51,8.40
2013,08,18,04,52,8.40
2013,08,18,04,53,8.40
2013,08,18,04,54,8.40
2013,08,18,04,55,8.40
2013,08,18,04,56,8.40
2013,08,18,04,57,8.40
2013,08,18,04,58,8.40
2013,08,18,04,59,8.40
2013,08,18,05,00,8.40
2013,08,18,05,04,8.70
2013,08,18,05,05,8.70
2013,08,18,05,06,8.70
2013,08,18,05,07,8.70
2013,08,18,05,08,8.70
2013,08,18,05,09,8.70
2013,08,18,05,10,8.70
2013,08,18,05,11,8.70
2013,08,18,05,12,8.70
2013,08,18,05,13,8.70
2013,08,18,05,14,8.70
2013,08,18,05,15,8.70
2013,08,18,05,19,8.70
2013,08,18,05,20,8.70
2013,08,18,05,21,8.70
2013,08,18,05,22,8.70
2013,08,18,05,23,8.70
2013,08,18,05,24,8.70
2013,08,18,05,25,8.70
2013,08,18,05,26,8.70
2013,08,18,05,27,8.70
2013,08,18,05,28,8.70
2013,08,18,05,29,8.70
2013,08,18,05,30,8.70
2013,08,18,05,34,8.90
2013,08,18,05,35,8.90
2013,08,18,05,36,8.90
2013,08,18,05,37,8.90
2013,08,18,05,38,8.90
2013,08,18,05,39,8.90
2013,08,18,05,40,8.90
2013,08,18,05,41,8.90
2013,08,18,05,42,8.90
2013,08,18,05,43,8.90
2013,08,18,05,44,8.90
2013,08,18,05,45,8.90
2013,08,18,05,49,8.90
2013,08,18,05,50,8.90
2013,08,18,05,51,8.90
2013,08,18,05,52,8.90
2013,08,18,05,53,8.90
2013,08,18,05,54,8.90
2013,08,18,05,55,8.90
2013,08,18,05,56,8.90
2013,08,18,05,57,8.90
2013,08,18,05,58,8.90
2013,08,18,05,59,8.90
2013,08,18,06,00,8.90
2013,08,18,06,04,8.80
2013,08,18,06,05,8.80
2013,08,18,06,06,8.80
2013,08,18,06,07,8.80
2013,08,18,06,08,8.80
2013,08,18,06,09,8.80
2013,08,18,06,10,8.80
2013,08,18,06,11,8.80
2013,08,18,06,12,8.80
2013,08,18,06,13,8.80
2013,08,18,06,14,8.80
2013,08,18,06,15,8.80
2013,08,18,06,19,8.70
2013,08,18,06,20,8.70
2013,08,18,06,21,8.70
2013,08,18,06,22,8.70
2013,08,18,06,23,8.70
2013,08,18,06,24,8.70
2013,08,18,06,25,8.70
2013,08,18,06,26,8.70
2013,08,18,06,27,8.70
2013,08,18,06,28,8.70
2013,08,18,06,29,8.70
2013,08,18,06,30,8.70
2013,08,18,06,34,8.60
2013,08,18,06,35,8.60
2013,08,18,06,36,8.60
2013,08,18,06,37,8.60
2013,08,18,06,38,8.60
2013,08,18,06,39,8.60
2013,08,18,06,40,8.60
2013,08,18,06,41,8.60
2013,08,18,06,42,8.60
2013,08,18,06,43,8.60
2013,08,18,06,44,8.60
2013,08,18,06,45,8.60
2013,08,18,06,49,8.50
2013,08,18,06,50,8.50
2013,08,18,06,51,8.50
2013,08,18,06,52,8.50
2013,08,18,06,53,8.50
2013,08,18,06,54,8.50
2013,08,18,06,55,8.50
2013,08,18,06,56,8.50
2013,08,18,06,57,8.50
2013,08,18,06,58,8.50
2013,08,18,06,59,8.50
2013,08,18,07,00,8.50
2013,08,18,07,04,8.50
2013,08,18,07,05,8.50
2013,08,18,07,06,8.50
2013,08,18,07,07,8.50
2013,08,18,07,08,8.50
2013,08,18,07,09,8.50
2013,08,18,07,10,8.50
2013,08,18,07,11,8.50
2013,08,18,07,12,8.50
2013,08,18,07,13,8.50
2013,08,18,07,14,8.50
2013,08,18,07,15,8.50
2013,08,18,07,19,8.60
2013,08,18,07,20,8.60
2013,08,18,07,21,8.60
2013,08,18,07,22,8.60
2013,08,18,07,23,8.60
2013,08,18,07,24,8.60
2013,08,18,07,25,8.60
2013,08,18,07,26,8.60
2013,08,18,07,27,8.60
2013,08,18,07,28,8.60
2013,08,18,07,29,8.60
2013,08,18,07,30,8.60
2013,08,18,07,34,8.60
2013,08,18,07,35,8.60
2013,08,18,07,36,8.60
2013,08,18,07,37,8.60
2013,08,18,07,38,8.60
2013,08,18,07,39,8.60
2013,08,18,07,40,8.60
2013,08,18,07,41,8.60
2013,08,18,07,42,8.60
2013,08,18,07,43,8.60
2013,08,18,07,44,8.60
2013,08,18,07,45,8.60
2013,08,18,07,49,8.60
2013,08,18,07,50,8.60
2013,08,18,07,51,8.60
2013,08,18,07,52,8.60
2013,08,18,07,53,8.60
2013,08,18,07,54,8.60
2013,08,18,07,55,8.60
2013,08,18,07,56,8.60
2013,08,18,07,57,8.60
2013,08,18,07,58,8.60
2013,08,18,07,59,8.60
2013,08,18,08,00,8.60
2013,08,18,08,04,8.40
2013,08,18,08,05,8.40
2013,08,18,08,06,8.40
2013,08,18,08,07,8.40
2013,08,18,08,08,8.40
2013,08,18,08,09,8.40
2013,08,18,08,10,8.40
2013,08,18,08,11,8.40
2013,08,18,08,12,8.40
2013,08,18,08,13,8.40
2013,08,18,08,14,8.40
2013,08,18,08,15,8.40
2013,08,18,08,19,8.20
2013,08,18,08,20,8.20
2013,08,18,08,21,8.20
2013,08,18,08,22,8.20
2013,08,18,08,23,8.20
2013,08,18,08,24,8.20
2013,08,18,08,25,8.20
2013,08,18,08,26,8.20
2013,08,18,08,27,8.20
2013,08,18,08,28,8.20
2013,08,18,08,29,8.20
2013,08,18,08,30,8.20
2013,08,18,08,34,8.20
2013,08,18,08,35,8.20
2013,08,18,08,36,8.20
2013,08,18,08,37,8.20
2013,08,18,08,38,8.20
2013,08,18,08,39,8.20
2013,08,18,08,40,8.20
2013,08,18,08,41,8.20
2013,08,18,08,42,8.20
2013,08,18,08,43,8.20
2013,08,18,08,44,8.20
2013,08,18,08,45,8.20
2013,08,18,08,49,8.10
2013,08,18,08,50,8.10
2013,08,18,08,51,8.10
2013,08,18,08,52,8.10
2013,08,18,08,53,8.10
2013,08,18,08,54,8.10
2013,08,18,08,55,8.10
2013,08,18,08,56,8.10
2013,08,18,08,57,8.10
2013,08,18,08,58,8.10
2013,08,18,08,59,8.10
2013,08,18,09,00,8.10
2013,08,18,09,04,8.10
2013,08,18,09,05,8.10
2013,08,18,09,06,8.10
2013,08,18,09,07,8.10
2013,08,18,09,08,8.10
2013,08,18,09,09,8.10
2013,08,18,09,10,8.10
2013,08,18,09,11,8.10
2013,08,18,09,12,8.10
2013,08,18,09,13,8.10
2013,08,18,09,14,8.10
2013,08,18,09,15,8.10
2013,08,18,09,19,8.10
2013,08,18,09,20,8.10
2013,08,18,09,21,8.10
2013,08,18,09,22,8.10
2013,08,18,09,23,8.10
2013,08,18,09,24,8.10
2013,08,18,09,25,8.10
2013,08,18,09,26,8.10
2013,08,18,09,27,8.10
2013,08,18,09,28,8.10
2013,08,18,09,29,8.10
2013,08,18,09,30,8.10
2013,08,18,09,34,8.10
2013,08,18,09,35,8.10
2013,08,18,09,36,8.10
2013,08,18,09,37,8.10
2013,08,18,09,38,8.10
2013,08,18,09,39,8.10
2013,08,18,09,40,8.10
2013,08,18,09,41,8.10
2013,08,18,09,42,8.10
2013,08,18,09,43,8.10
2013,08,18,09,44,8.10
2013,08,18,09,45,8.10
2013,08,18,09,49,8.00
2013,08,18,09,50,8.00
2013,08,18,09,51,8.00
2013,08,18,09,52,8.00
2013,08,18,09,53,8.00
2013,08,18,09,54,8.00
2013,08,18,09,55,8.00
2013,08,18,09,56,8.00
2013,08,18,09,57,8.00
2013,08,18,09,58,8.00
2013,08,18,09,59,8.00
2013,08,18,10,00,8.00
2013,08,18,10,04,8.10
2013,08,18,10,05,8.10
2013,08,18,10,06,8.10
2013,08,18,10,07,8.10
2013,08,18,10,08,8.10
2013,08,18,10,09,8.10
2013,08,18,10,10,8.10
2013,08,18,10,11,8.10
2013,08,18,10,12,8.10
2013,08,18,10,13,8.10
2013,08,18,10,14,8.10
2013,08,18,10,15,8.10
2013,08,18,10,19,8.30
2013,08,18,10,20,8.30
2013,08,18,10,21,8.30
2013,08,18,10,22,8.30
2013,08,18,10,23,8.30
2013,08,18,10,24,8.30
2013,08,18,10,25,8.30
2013,08,18,10,26,8.30
2013,08,18,10,27,8.30
2013,08,18,10,28,8.30
2013,08,18,10,29,8.30
2013,08,18,10,30,8.30
2013,08,18,10,34,8.50
2013,08,18,10,35,8.50
2013,08,18,10,36,8.50
2013,08,18,10,37,8.50
2013,08,18,10,38,8.50
2013,08,18,10,39,8.50
2013,08,18,10,40,8.50
2013,08,18,10,41,8.50
2013,08,18,10,42,8.50
2013,08,18,10,43,8.50
2013,08,18,10,44,8.50
2013,08,18,10,45,8.50
2013,08,18,10,49,8.50
2013,08,18,10,50,8.50
2013,08,18,10,51,8.50
2013,08,18,10,52,8.50
2013,08,18,10,53,8.50
2013,08,18,10,54,8.50
2013,08,18,10,55,8.50
2013,08,18,10,56,8.50
2013,08,18,10,57,8.50
2013,08,18,10,58,8.50
2013,08,18,10,59,8.50
2013,08,18,11,00,8.50
2013,08,18,11,04,8.70
2013,08,18,11,05,8.70
2013,08,18,11,06,8.70
2013,08,18,11,07,8.70
2013,08,18,11,08,8.70
2013,08,18,11,09,8.70
2013,08,18,11,10,8.70
2013,08,18,11,11,8.70
2013,08,18,11,12,8.70
2013,08,18,11,13,8.70
2013,08,18,11,14,8.70
2013,08,18,11,15,8.70
2013,08,18,11,19,8.90
2013,08,18,11,20,8.90
2013,08,18,11,21,8.90
2013,08,18,11,22,8.90
2013,08,18,11,23,8.90
2013,08,18,11,24,8.90
2013,08,18,11,25,8.90
2013,08,18,11,26,8.90
2013,08,18,11,27,8.90
2013,08,18,11,28,8.90
2013,08,18,11,29,8.90
2013,08,18,11,30,8.90
2013,08,18,11,34,8.90
2013,08,18,11,35,8.90
2013,08,18,11,36,8.90
2013,08,18,11,37,8.90
2013,08,18,11,38,8.90
2013,08,18,11,39,8.90
2013,08,18,11,40,8.90
2013,08,18,11,41,8.90
2013,08,18,11,42,8.90
2013,08,18,11,43,8.90
2013,08,18,11,44,8.90
2013,08,18,11,45,8.90
2013,08,18,11,49,9.10
2013,08,18,11,50,9.10
2013,08,18,11,51,9.10
2013,08,18,11,52,9.10
2013,08,18,11,53,9.10
2013,08,18,11,54,9.10
2013,08,18,11,55,9.10
2013,08,18,11,56,9.10
2013,08,18,11,57,9.10
2013,08,18,11,58,9.10
2013,08,18,11,59,9.10
2013,08,18,12,00,9.10
2013,08,18,12,04,9.20
2013,08,18,12,05,9.20
2013,08,18,12,06,9.20
2013,08,18,12,07,9.20
2013,08,18,12,08,9.20
2013,08,18,12,09,9.20
2013,08,18,12,10,9.20
2013,08,18,12,11,9.20
2013,08,18,12,12,9.20
2013,08,18,12,13,9.20
2013,08,18,12,14,9.20
2013,08,18,12,15,9.20
2013,08,18,12,19,9.40
2013,08,18,12,20,9.40
2013,08,18,12,21,9.40
2013,08,18,12,22,9.40
2013,08,18,12,23,9.40
2013,08,18,12,24,9.40
2013,08,18,12,25,9.40
2013,08,18,12,26,9.40
2013,08,18,12,27,9.40
2013,08,18,12,28,9.40
2013,08,18,12,29,9.40
2013,08,18,12,30,9.40
2013,08,18,12,34,10.20
2013,08,18,12,35,10.20
2013,08,18,12,36,10.20
2013,08,18,12,37,10.20
2013,08,18,12,38,10.20
2013,08,18,12,39,10.20
2013,08,18,12,40,10.20
2013,08,18,12,41,10.20
2013,08,18,12,42,10.20
2013,08,18,12,43,10.20
2013,08,18,12,44,10.20
2013,08,18,12,45,10.20
2013,08,18,12,49,10.90
2013,08,18,12,50,10.90
2013,08,18,12,51,10.90
2013,08,18,12,52,10.90
2013,08,18,12,53,10.90
2013,08,18,12,54,10.90
2013,08,18,12,55,10.90
2013,08,18,12,56,10.90
2013,08,18,12,57,10.90
2013,08,18,12,58,10.90
2013,08,18,12,59,10.90
2013,08,18,13,00,10.90
2013,08,18,13,04,10.20
2013,08,18,13,05,10.20
2013,08,18,13,06,10.20
2013,08,18,13,07,10.20
2013,08,18,13,08,10.20
2013,08,18,13,09,10.20
2013,08,18,13,10,10.20
2013,08,18,13,11,10.20
2013,08,18,13,12,10.20
2013,08,18,13,13,10.20
2013,08,18,13,14,10.20
2013,08,18,13,15,10.20
2013,08,18,13,19,9.40
2013,08,18,13,20,9.40
2013,08,18,13,21,9.40
2013,08,18,13,22,9.40
2013,08,18,13,23,9.40
2013,08,18,13,24,9.40
2013,08,18,13,25,9.40
2013,08,18,13,26,9.40
2013,08,18,13,27,9.40
2013,08,18,13,28,9.40
2013,08,18,13,29,9.40
2013,08,18,13,30,9.40
2013,08,18,13,34,8.70
2013,08,18,13,35,8.70
2013,08,18,13,36,8.70
2013,08,18,13,37,8.70
2013,08,18,13,38,8.70
2013,08,18,13,39,8.70
2013,08,18,13,40,8.70
2013,08,18,13,41,8.70
2013,08,18,13,42,8.70
2013,08,18,13,43,8.70
2013,08,18,13,44,8.70
2013,08,18,13,45,8.70
2013,08,18,13,49,9.30
2013,08,18,13,50,9.30
2013,08,18,13,51,9.30
2013,08,18,13,52,9.30
2013,08,18,13,53,9.30
2013,08,18,13,54,9.30
2013,08,18,13,55,9.30
2013,08,18,13,56,9.30
2013,08,18,13,57,9.30
2013,08,18,13,58,9.30
2013,08,18,13,59,9.30
2013,08,18,14,00,9.30
2013,08,18,14,04,9.70
2013,08,18,14,05,9.70
2013,08,18,14,06,9.70
2013,08,18,14,07,9.70
2013,08,18,14,08,9.70
2013,08,18,14,09,9.70
2013,08,18,14,10,9.70
2013,08,18,14,11,9.70
2013,08,18,14,12,9.70
2013,08,18,14,13,9.70
2013,08,18,14,14,9.70
2013,08,18,14,15,9.70
2013,08,18,14,19,9.60
2013,08,18,14,20,9.60
2013,08,18,14,21,9.60
2013,08,18,14,22,9.60
2013,08,18,14,23,9.60
2013,08,18,14,24,9.60
2013,08,18,14,25,9.60
2013,08,18,14,26,9.60
2013,08,18,14,27,9.60
2013,08,18,14,28,9.60
2013,08,18,14,29,9.60
2013,08,18,14,30,9.60
2013,08,18,14,34,9.50
2013,08,18,14,35,9.50
2013,08,18,14,36,9.50
2013,08,18,14,37,9.50
2013,08,18,14,38,9.50
2013,08,18,14,39,9.50
2013,08,18,14,40,9.50
2013,08,18,14,41,9.50
2013,08,18,14,42,9.50
2013,08,18,14,43,9.50
2013,08,18,14,44,9.50
2013,08,18,14,45,9.50
2013,08,18,14,49,9.10
2013,08,18,14,50,9.10
2013,08,18,14,51,9.10
2013,08,18,14,52,9.10
2013,08,18,14,53,9.10
2013,08,18,14,54,9.10
2013,08,18,14,55,9.10
2013,08,18,14,56,9.10
2013,08,18,14,57,9.10
2013,08,18,14,58,9.10
2013,08,18,14,59,9.10
2013,08,18,15,00,9.10
2013,08,18,15,04,8.90
2013,08,18,15,05,8.90
2013,08,18,15,06,8.90
2013,08,18,15,07,8.90
2013,08,18,15,08,8.90
2013,08,18,15,09,8.90
2013,08,18,15,10,8.90
2013,08,18,15,11,8.90
2013,08,18,15,12,8.90
2013,08,18,15,13,8.90
2013,08,18,15,14,8.90
2013,08,18,15,15,8.90
2013,08,18,15,19,9.30
2013,08,18,15,20,9.30
2013,08,18,15,21,9.30
2013,08,18,15,22,9.30
2013,08,18,15,23,9.30
2013,08,18,15,24,9.30
2013,08,18,15,25,9.30
2013,08,18,15,26,9.30
2013,08,18,15,27,9.30
2013,08,18,15,28,9.30
2013,08,18,15,29,9.30
2013,08,18,15,30,9.30
2013,08,18,15,34,9.30
2013,08,18,15,35,9.30
2013,08,18,15,36,9.30
2013,08,18,15,37,9.30
2013,08,18,15,38,9.30
2013,08,18,15,39,9.30
2013,08,18,15,40,9.30
2013,08,18,15,41,9.30
2013,08,18,15,42,9.30
2013,08,18,15,43,9.30
2013,08,18,15,44,9.30
2013,08,18,15,45,9.30
2013,08,18,15,49,9.30
2013,08,18,15,50,9.30
2013,08,18,15,51,9.30
2013,08,18,15,52,9.30
2013,08,18,15,53,9.30
2013,08,18,15,54,9.30
2013,08,18,15,55,9.30
2013,08,18,15,56,9.30
2013,08,18,15,57,9.30
2013,08,18,15,58,9.30
2013,08,18,15,59,9.30
2013,08,18,16,00,9.30
2013,08,18,16,04,9.10
2013,08,18,16,05,9.10
2013,08,18,16,06,9.10
2013,08,18,16,07,9.10
2013,08,18,16,08,9.10
2013,08,18,16,09,9.10
2013,08,18,16,10,9.10
2013,08,18,16,11,9.10
2013,08,18,16,12,9.10
2013,08,18,16,13,9.10
2013,08,18,16,14,9.10
2013,08,18,16,15,9.10
2013,08,18,16,19,8.60
2013,08,18,16,20,8.60
2013,08,18,16,21,8.60
2013,08,18,16,22,8.60
2013,08,18,16,23,8.60
2013,08,18,16,24,8.60
2013,08,18,16,25,8.60
2013,08,18,16,26,8.60
2013,08,18,16,27,8.60
2013,08,18,16,28,8.60
2013,08,18,16,29,8.60
2013,08,18,16,30,8.60
2013,08,18,16,34,8.70
2013,08,18,16,35,8.70
2013,08,18,16,36,8.70
2013,08,18,16,37,8.70
2013,08,18,16,38,8.70
2013,08,18,16,39,8.70
2013,08,18,16,40,8.70
2013,08,18,16,41,8.70
2013,08,18,16,42,8.70
2013,08,18,16,43,8.70
2013,08,18,16,44,8.70
2013,08,18,16,45,8.70
2013,08,18,16,49,9.30
2013,08,18,16,50,9.30
2013,08,18,16,51,9.30
2013,08,18,16,52,9.30
2013,08,18,16,53,9.30
2013,08,18,16,54,9.30
2013,08,18,16,55,9.30
2013,08,18,16,56,9.30
2013,08,18,16,57,9.30
2013,08,18,16,58,9.30
2013,08,18,16,59,9.30
2013,08,18,17,00,9.30
2013,08,18,17,04,8.70
2013,08,18,17,05,8.70
2013,08,18,17,06,8.70
2013,08,18,17,07,8.70
2013,08,18,17,08,8.70
2013,08,18,17,09,8.70
2013,08,18,17,10,8.70
2013,08,18,17,11,8.70
2013,08,18,17,12,8.70
2013,08,18,17,13,8.70
2013,08,18,17,14,8.70
2013,08,18,17,15,8.70
2013,08,18,17,19,9.20
2013,08,18,17,20,9.20
2013,08,18,17,21,9.20
2013,08,18,17,22,9.20
2013,08,18,17,23,9.20
2013,08,18,17,24,9.20
2013,08,18,17,25,9.20
2013,08,18,17,26,9.20
2013,08,18,17,27,9.20
2013,08,18,17,28,9.20
2013,08,18,17,29,9.20
2013,08,18,17,30,9.20
2013,08,18,17,34,8.50
2013,08,18,17,35,8.50
2013,08,18,17,36,8.50
2013,08,18,17,37,8.50
2013,08,18,17,38,8.50
2013,08,18,17,39,8.50
2013,08,18,17,40,8.50
2013,08,18,17,41,8.50
2013,08,18,17,42,8.50
2013,08,18,17,43,8.50
2013,08,18,17,44,8.50
2013,08,18,17,45,8.50
2013,08,18,17,49,8.30
2013,08,18,17,50,8.30
2013,08,18,17,51,8.30
2013,08,18,17,52,8.30
2013,08,18,17,53,8.30
2013,08,18,17,54,8.30
2013,08,18,17,55,8.30
2013,08,18,17,56,8.30
2013,08,18,17,57,8.30
2013,08,18,17,58,8.30
2013,08,18,17,59,8.30
2013,08,18,18,00,8.30
2013,08,18,18,04,8.40
2013,08,18,18,05,8.40
2013,08,18,18,06,8.40
2013,08,18,18,07,8.40
2013,08,18,18,08,8.40
2013,08,18,18,09,8.40
2013,08,18,18,10,8.40
2013,08,18,18,11,8.40
2013,08,18,18,12,8.40
2013,08,18,18,13,8.40
2013,08,18,18,14,8.40
2013,08,18,18,15,8.40
2013,08,18,18,19,9.60
2013,08,18,18,20,9.60
2013,08,18,18,21,9.60
2013,08,18,18,22,9.60
2013,08,18,18,23,9.60
2013,08,18,18,24,9.60
2013,08,18,18,25,9.60
2013,08,18,18,26,9.60
2013,08,18,18,27,9.60
2013,08,18,18,28,9.60
2013,08,18,18,29,9.60
2013,08,18,18,30,9.60
2013,08,18,18,34,9.60
2013,08,18,18,35,9.60
2013,08,18,18,36,9.60
2013,08,18,18,37,9.60
2013,08,18,18,38,9.60
2013,08,18,18,39,9.60
2013,08,18,18,40,9.60
2013,08,18,18,41,9.60
2013,08,18,18,42,9.60
2013,08,18,18,43,9.60
2013,08,18,18,44,9.60
2013,08,18,18,45,9.60
2013,08,18,18,49,9.30
2013,08,18,18,50,9.30
2013,08,18,18,51,9.30
2013,08,18,18,52,9.30
2013,08,18,18,53,9.30
2013,08,18,18,54,9.30
2013,08,18,18,55,9.30
2013,08,18,18,56,9.30
2013,08,18,18,57,9.30
2013,08,18,18,58,9.30
2013,08,18,18,59,9.30
2013,08,18,19,00,9.30
2013,08,18,19,04,9.80
2013,08,18,19,05,9.80
2013,08,18,19,06,9.80
2013,08,18,19,07,9.80
2013,08,18,19,08,9.80
2013,08,18,19,09,9.80
2013,08,18,19,10,9.80
2013,08,18,19,11,9.80
2013,08,18,19,12,9.80
2013,08,18,19,13,9.80
2013,08,18,19,14,9.80
2013,08,18,19,15,9.80
2013,08,18,19,19,9.90
2013,08,18,19,20,9.90
2013,08,18,19,21,9.90
2013,08,18,19,22,9.90
2013,08,18,19,23,9.90
2013,08,18,19,24,9.90
2013,08,18,19,25,9.90
2013,08,18,19,26,9.90
2013,08,18,19,27,9.90
2013,08,18,19,28,9.90
2013,08,18,19,29,9.90
2013,08,18,19,30,9.90
2013,08,18,19,34,9.90
2013,08,18,19,35,9.90
2013,08,18,19,36,9.90
2013,08,18,19,37,9.90
2013,08,18,19,38,9.90
2013,08,18,19,39,9.90
2013,08,18,19,40,9.90
2013,08,18,19,41,9.90
2013,08,18,19,42,9.90
2013,08,18,19,43,9.90
2013,08,18,19,44,9.90
2013,08,18,19,45,9.90
2013,08,18,19,49,9.40
2013,08,18,19,50,9.40
2013,08,18,19,51,9.40
2013,08,18,19,52,9.40
2013,08,18,19,53,9.40
2013,08,18,19,54,9.40
2013,08,18,19,55,9.40
2013,08,18,19,56,9.40
2013,08,18,19,57,9.40
2013,08,18,19,58,9.40
2013,08,18,19,59,9.40
2013,08,18,20,00,9.40
2013,08,18,20,04,9.10
2013,08,18,20,05,9.10
2013,08,18,20,06,9.10
2013,08,18,20,07,9.10
2013,08,18,20,08,9.10
2013,08,18,20,09,9.10
2013,08,18,20,10,9.10
2013,08,18,20,11,9.10
2013,08,18,20,12,9.10
2013,08,18,20,13,9.10
2013,08,18,20,14,9.10
2013,08,18,20,15,9.10
2013,08,18,20,19,8.70
2013,08,18,20,20,8.70
2013,08,18,20,21,8.70
2013,08,18,20,22,8.70
2013,08,18,20,23,8.70
2013,08,18,20,24,8.70
2013,08,18,20,25,8.70
2013,08,18,20,26,8.70
2013,08,18,20,27,8.70
2013,08,18,20,28,8.70
2013,08,18,20,29,8.70
2013,08,18,20,30,8.70
2013,08,18,20,34,8.20
2013,08,18,20,35,8.20
2013,08,18,20,36,8.20
2013,08,18,20,37,8.20
2013,08,18,20,38,8.20
2013,08,18,20,39,8.20
2013,08,18,20,40,8.20
2013,08,18,20,41,8.20
2013,08,18,20,42,8.20
2013,08,18,20,43,8.20
2013,08,18,20,44,8.20
2013,08,18,20,45,8.20
2013,08,18,20,49,7.90
2013,08,18,20,50,7.90
2013,08,18,20,51,7.90
2013,08,18,20,52,7.90
2013,08,18,20,53,7.90
2013,08,18,20,54,7.90
2013,08,18,20,55,7.90
2013,08,18,20,56,7.90
2013,08,18,20,57,7.90
2013,08,18,20,58,7.90
2013,08,18,20,59,7.90
2013,08,18,21,00,7.90
2013,08,18,21,04,7.60
2013,08,18,21,05,7.60
2013,08,18,21,06,7.60
2013,08,18,21,07,7.60
2013,08,18,21,08,7.60
2013,08,18,21,09,7.60
2013,08,18,21,10,7.60
2013,08,18,21,11,7.60
2013,08,18,21,12,7.60
2013,08,18,21,13,7.60
2013,08,18,21,14,7.60
2013,08,18,21,15,7.60
2013,08,18,21,19,7.30
2013,08,18,21,20,7.30
2013,08,18,21,21,7.30
2013,08,18,21,22,7.30
2013,08,18,21,23,7.30
2013,08,18,21,24,7.30
2013,08,18,21,25,7.30
2013,08,18,21,26,7.30
2013,08,18,21,27,7.30
2013,08,18,21,28,7.30
2013,08,18,21,29,7.30
2013,08,18,21,30,7.30
2013,08,18,21,34,7.10
2013,08,18,21,35,7.10
2013,08,18,21,36,7.10
2013,08,18,21,37,7.10
2013,08,18,21,38,7.10
2013,08,18,21,39,7.10
2013,08,18,21,40,7.10
2013,08,18,21,41,7.10
2013,08,18,21,42,7.10
2013,08,18,21,43,7.10
2013,08,18,21,44,7.10
2013,08,18,21,45,7.10
2013,08,18,21,49,7.20
2013,08,18,21,50,7.20
2013,08,18,21,51,7.20
2013,08,18,21,52,7.20
2013,08,18,21,53,7.20
2013,08,18,21,54,7.20
2013,08,18,21,55,7.20
2013,08,18,21,56,7.20
2013,08,18,21,57,7.20
2013,08,18,21,58,7.20
2013,08,18,21,59,7.20
2013,08,18,22,00,7.20
2013,08,18,22,04,7.30
2013,08,18,22,05,7.30
2013,08,18,22,06,7.30
2013,08,18,22,07,7.30
2013,08,18,22,08,7.30
2013,08,18,22,09,7.30
2013,08,18,22,10,7.30
2013,08,18,22,11,7.30
2013,08,18,22,12,7.30
2013,08,18,22,13,7.30
2013,08,18,22,14,7.30
2013,08,18,22,15,7.30
2013,08,18,22,19,7.60
2013,08,18,22,20,7.60
2013,08,18,22,21,7.60
2013,08,18,22,22,7.60
2013,08,18,22,23,7.60
2013,08,18,22,24,7.60
2013,08,18,22,25,7.60
2013,08,18,22,26,7.60
2013,08,18,22,27,7.60
2013,08,18,22,28,7.60
2013,08,18,22,29,7.60
2013,08,18,22,30,7.60
2013,08,18,22,34,7.60
2013,08,18,22,35,7.60
2013,08,18,22,36,7.60
2013,08,18,22,37,7.60
2013,08,18,22,38,7.60